Regional Weather Roundup
Issued by NWS

Home | Current Version | Previous Version | Graphics & Text | Print | Product List | Glossary On
Versions: 1 2 3 4 5 6 7 8 9 10 11 12 13 14 15 16 17 18 19 20 21 22 23 24 25 26 27 28 29 30 31 32 33 34 35 36 37 38 39 40 41 42 43 44 45 46 47 48 49 50
000
ASUS45 KTFX 302104
RWRMT
MONTANA HOURLY WEATHER ROUNDUP
NATIONAL WEATHER SERVICE GREAT FALLS MT
204 PM MST FRI JAN 30 2015

NOTE: "FAIR" INDICATES FEW OR NO CLOUDS BELOW 12000 FEET WITH NO
SIGNIFICANT WEATHER AND/OR OBSTRUCTIONS TO VISIBILITY.

* THESE STATIONS ARE NOT UNDER NWS QUALITY CONTROL. THEY DO NOT
   REPORT WEATHER SUCH AS PRECIPITATION OR FOG.

MTZ001>007-043-302200-
WEST OF THE DIVIDE
CITY           SKY/WX    TMP DP  RH WIND       PRES   REMARKS
KALISPELL      FOG       25  23  92 S5        30.30F VSB 1/2  WCI  19
MISSOULA       FOG       30  25  82 CALM      30.28F
BUTTE          SUNNY     37  16  42 N3        30.19F
MULLAN PASS    SUNNY     34  19  54 NW3       30.20F
* ANACONDA     SUNNY     39  19  45 NW3        N/A
* ESSEX        N/A       35  21  57 S1G6       N/A
* LINCOLN      N/A       40  21  47 SE2        N/A
* LOOKOUT PASS N/A       40  23  51 NW4        N/A
* POLSON       N/A       27  25  92 NE1        N/A
* RONAN APT    SUNNY     27  25  92 N/A        N/A
* SEELEY LAKE  N/A       40  22  49 S2         N/A
* THOMP F APT  SUNNY     37  13  37 NW7G16     N/A   WCI  32
$$

MTZ008-052>055-302200-
SOUTHWEST MONTANA
CITY           SKY/WX    TMP DP  RH WIND       PRES   REMARKS
BOZEMAN        SUNNY     39  21  48 CALM      30.19F
DILLON         PTCLDY    37  16  42 CALM      30.17F
* W YELLOWSTON CLOUDY    29  16  58 N1         N/A
* THREE FORKS  SUNNY     43  34  71 N/A        N/A
* BOULDER HILL N/A       39  17  41 S4         N/A
* MONIDA PASS  N/A       22  22 100 NW4        N/A
* RAYNOLDS PAS N/A       35  29  79 N/A        N/A
* WHITEHALL    N/A       44  21  40 SW6G12     N/A
* WISE RIVER   N/A       30  17  58 W5G10      N/A   WCI  25
$$

MTZ009>010-012-014-046-048-049-054-302200-
EAST SLOPES AND CENTRAL MONTANA
CITY           SKY/WX    TMP DP  RH WIND       PRES   REMARKS
CUT BANK       PTCLDY    48  16  28 SE6       30.12F
GREAT FALLS    SUNNY     48  18  30 W8        30.14F
HELENA         SUNNY     43  27  53 CALM      30.20F
MALMSTROM AFB  SUNNY     48  16  28 W9        30.15F
* DEARBORN     N/A       46  18  33 S11        N/A
* EAST GLACIER N/A       40  15  36 W24G34     N/A   WCI  30
* MONARCH      N/A       47   9  21 NW2        N/A
* PENDROY      N/A       51   2  13 SE4        N/A
* ROGERS PASS  N/A       34  16  48 S7         N/A   WCI  28
* SWEET GRASS  N/A       43  20  40 SE4        N/A
$$

MTZ011-013-016-021-035-040-045-047-050-051-302200-
NORTH CENTRAL MONTANA
CITY           SKY/WX    TMP DP  RH WIND       PRES   REMARKS
HAVRE          PTCLDY    43  21  42 S5        30.17F
LEWISTOWN      SUNNY     46  10  23 N5        30.15F
* N BAR RANCH  SUNNY     46  10  23 SE9       30.16F
* CHESTER      N/A       43  24  47 SW3        N/A
* DENTON       N/A       50  13  23 E3         N/A
* GEYSER       N/A       49  10  20 NE6        N/A
* JUDITH GAP   N/A       49   6  17 S4         N/A
* LOMA         N/A       46  23  40 SW4        N/A
$$

MTZ017>020-022>027-061-062-302200-
NORTHEAST MONTANA
CITY           SKY/WX    TMP DP  RH WIND       PRES   REMARKS
GLASGOW        PTCLDY   N/A N/A N/A NW3       30.20F
GLENDIVE       SUNNY     45  27  49 N10       30.19F
JORDAN         SUNNY     45  30  56 N6        30.18F
SIDNEY         SUNNY     43  27  53 N8        30.21F
WOLF POINT     PTCLDY    43  30  60 SW8       30.20F
* BEAVER HILL  N/A       42  26  53 NW9        N/A
* CIRCLE       N/A       43  33  68 SW2        N/A
* LINDSAY DVD  N/A       42  26  53 N5G12      N/A
* NAVAJO       N/A       39  26  60 VRB14      N/A   WCI  31
* SACO         N/A       35  32  89 NW5        N/A   WCI  31
$$

MTZ028>042-056>058-302200-
SOUTHCENTRAL AND SOUTHEAST MONTANA
CITY           SKY/WX    TMP DP  RH WIND       PRES   REMARKS
BAKER          SUNNY     45  28  51 N8        30.17F
BILLINGS       SUNNY     50  21  32 SW7       30.17F
LIVINGSTON     SUNNY     46  16  30 W8        30.16F
MILES CITY     SUNNY     46  28  50 NW6       30.19S
* LAUREL APT   SUNNY     48  16  28 N/A        N/A
* ROUNDUP APT  SUNNY     48  12  23 N/A        N/A
* ALZADA       N/A       47  23  39 NW4        N/A
* HYSHAM       N/A       45  16  31 W2G8       N/A
* LAME DEER    N/A       43  19  38 N4G9       N/A
* REED POINT   N/A       49  20  32 W2         N/A
* ROSCOE HILL  N/A       45  10  24 E4         N/A
$$

REGIONAL REPORTS...DAKOTAS
CITY           SKY/WX    TMP DP  RH WIND       PRES   REMARKS
WILLISTON      SUNNY     39  27  62 NW9       30.18F WCI  33
DICKINSON      SUNNY     46  27  48 NW15      30.12F
CROSBY         SUNNY     34  28  79 NW15      30.18F WCI  24
WATFORD CITY   SUNNY     39  27  62 NW13      30.15F WCI  31
BISMARCK       SUNNY     46  28  50 NW13      30.12F
GRAND FORKS    PTCLDY    32  21  64 S10       30.12F WCI  24
FARGO          SUNNY     32  21  64 S16       30.15F WCI  21
BUFFALO SD     SUNNY     52  21  30 N13       30.08F
RAPID CITY     SUNNY     52  25  35 N16       30.13S
$$

REGIONAL REPORTS...WYOMING/IDAHO/WASHINGTON
CITY           SKY/WX    TMP DP  RH WIND       PRES   REMARKS
GILLETTE       PTSUNNY   46  23  40 N12       30.16F
SHERIDAN       PTSUNNY   50  18  28 NW5       30.17F
CODY           PTSUNNY   41  23  49 CALM      30.16F
YELLOWSTONE LA CLOUDY    12   9  88 CALM      30.18F
SALMON         CLOUDY    30  21  69 N6        30.30F WCI  24
MULLAN PASS    SUNNY     34  19  54 NW3       30.20S
SAND POINT     CLOUDY    32  30  92 CALM      30.33F
SPOKANE        FOG       30  28  92 CALM      30.32F VSB M1/4
$$

REGIONAL REPORTS...SASKATCHEWAN
CITY           SKY/WX    TMP DP  RH WIND       PRES   REMARKS
MOOSE JAW      FOG       21  21 100 N15       30.24S VSB 2    WCI   7

$$




USA.gov is the U.S. government's official web portal to all federal, state and local government web resources and services.